| time (UTC) | temp F | wind direction | speed knots | gust knots | rain 1hr in | rain 24hr in | rain mn in | humidity % | barometer mb |
| 20260503050028 | 59 | 39 | 0.0 | 1.7 | 0.00 | 0.00 | 0.00 | 46 | 1012.9 |
| 20260503044528 | 60 | 35 | 0.9 | 1.7 | 0.00 | 0.00 | 0.00 | 46 | 1012.8 |
| 20260503043027 | 61 | 352 | 0.0 | 0.9 | 0.00 | 0.00 | 0.00 | 48 | 1012.7 |
| 20260503041532 | 62 | 0 | 0.0 | 1.7 | 0.00 | 0.00 | 0.00 | 48 | 1012.5 |
| 20260503040034 | 63 | 0 | 0.0 | 2.6 | 0.00 | 0.00 | 0.00 | 44 | 1012.4 |
| 20260503034528 | 64 | 63 | 0.9 | 2.6 | 0.00 | 0.00 | 0.00 | 43 | 1012.1 |
| 20260503033030 | 65 | 51 | 0.9 | 3.5 | 0.00 | 0.00 | 0.00 | 42 | 1011.9 |
| 20260503031532 | 65 | 35 | 1.7 | 3.5 | 0.00 | 0.00 | 0.00 | 43 | 1011.8 |
| 20260503030035 | 67 | 22 | 0.9 | 2.6 | 0.00 | 0.00 | 0.00 | 42 | 1011.7 |
| 20260503024535 | 71 | 19 | 0.0 | 1.7 | 0.00 | 0.00 | 0.00 | 40 | 1011.6 |
| 20260503023028 | 73 | 0 | 0.0 | 2.6 | 0.00 | 0.00 | 0.00 | 34 | 1011.6 |
| 20260503021532 | 74 | 0 | 0.0 | 1.7 | 0.00 | 0.00 | 0.00 | 33 | 1011.5 |
| 20260503020027 | 76 | 337 | 0.9 | 1.7 | 0.00 | 0.00 | 0.00 | 34 | 1011.7 |
| 20260503014527 | 77 | 0 | 0.0 | 1.7 | 0.00 | 0.00 | 0.00 | 34 | 1011.8 |
| 20260503013034 | 77 | 271 | 0.9 | 3.5 | 0.00 | 0.00 | 0.00 | 31 | 1011.8 |
| 20260503011528 | 78 | 277 | 0.9 | 5.2 | 0.00 | 0.00 | 0.00 | 32 | 1011.8 |
| 20260503010031 | 78 | 260 | 1.7 | 3.5 | 0.00 | 0.00 | 0.00 | 29 | 1012.0 |
| 20260503004533 | 78 | 338 | 0.9 | 2.6 | 0.00 | 0.00 | 0.00 | 22 | 1012.0 |
| 20260503003036 | 79 | 346 | 0.9 | 4.3 | 0.00 | 0.00 | 0.00 | 24 | 1012.1 |
| 20260503001529 | 79 | 33 | 0.0 | 4.3 | 0.00 | 0.00 | 0.00 | 23 | 1012.2 |
| 20260503000028 | 79 | 0 | 0.0 | 3.5 | 0.00 | 0.00 | 0.00 | 21 | 1012.2 |
| 20260502234533 | 79 | 17 | 0.9 | 4.3 | 0.00 | 0.00 | 0.00 | 24 | 1012.3 |
| 20260502233027 | 80 | 332 | 1.7 | 3.5 | 0.00 | 0.00 | 0.00 | 24 | 1012.5 |
| 20260502231530 | 79 | 0 | 0.9 | 7.0 | 0.00 | 0.00 | 0.00 | 21 | 1012.6 |
| 20260502230034 | 79 | 344 | 1.7 | 4.3 | 0.00 | 0.00 | 0.00 | 26 | 1012.9 |
| 20260502224530 | 79 | 99 | 0.9 | 3.5 | 0.00 | 0.00 | 0.00 | 25 | 1013.2 |
| 20260502223028 | 79 | 37 | 0.9 | 4.3 | 0.00 | 0.00 | 0.00 | 24 | 1013.4 |
| 20260502221528 | 78 | 82 | 0.9 | 5.2 | 0.00 | 0.00 | 0.00 | 25 | 1013.6 |
| 20260502220027 | 78 | 106 | 0.9 | 3.5 | 0.00 | 0.00 | 0.00 | 24 | 1013.9 |
| 20260502214529 | 77 | 277 | 2.6 | 6.1 | 0.00 | 0.00 | 0.00 | 26 | 1014.1 |
| 20260502213038 | 77 | 0 | 0.9 | 2.6 | 0.00 | 0.00 | 0.00 | 26 | 1014.4 |
| 20260502211532 | 78 | 213 | 0.9 | 4.3 | 0.00 | 0.00 | 0.00 | 27 | 1014.5 |
| 20260502210032 | 78 | 254 | 0.9 | 5.2 | 0.00 | 0.00 | 0.00 | 26 | 1014.7 |
| 20260502204529 | 77 | 0 | 0.9 | 3.5 | 0.00 | 0.00 | 0.00 | 27 | 1014.9 |
| 20260502203030 | 76 | 0 | 0.9 | 5.2 | 0.00 | 0.00 | 0.00 | 26 | 1015.0 |
| 20260502201536 | 75 | 103 | 0.9 | 6.1 | 0.00 | 0.00 | 0.00 | 29 | 1015.2 |
| 20260502200027 | 74 | 222 | 0.9 | 6.1 | 0.00 | 0.00 | 0.00 | 28 | 1015.5 |
| 20260502194530 | 74 | 144 | 1.7 | 5.2 | 0.00 | 0.00 | 0.00 | 33 | 1015.5 |
| 20260502193029 | 72 | 270 | 1.7 | 7.0 | 0.00 | 0.00 | 0.00 | 31 | 1015.7 |
| 20260502191535 | 72 | 157 | 1.7 | 6.1 | 0.00 | 0.00 | 0.00 | 35 | 1015.9 |
| 20260502190028 | 72 | 263 | 0.9 | 7.0 | 0.00 | 0.00 | 0.00 | 41 | 1016.0 |
| 20260502184535 | 71 | 261 | 1.7 | 6.1 | 0.00 | 0.00 | 0.00 | 41 | 1016.1 |
| 20260502183030 | 71 | 0 | 0.9 | 4.3 | 0.00 | 0.00 | 0.00 | 40 | 1016.2 |
| 20260502181533 | 71 | 265 | 0.9 | 4.3 | 0.00 | 0.00 | 0.00 | 39 | 1016.6 |
| 20260502163030 | 62 | 0 | 0.0 | 1.7 | 0.00 | 0.00 | 0.00 | 53 | 1017.2 |
| 20260502161531 | 60 | 0 | 0.0 | 2.6 | 0.00 | 0.00 | 0.00 | 58 | 1017.2 |
| 20260502151529 | 54 | 0 | 0.0 | 2.6 | 0.00 | 0.00 | 0.00 | 65 | 1017.2 |
| 20260502123027 | 48 | 0 | 0.0 | 1.7 | 0.00 | 0.00 | 0.00 | 67 | 1016.2 |
| 20260502121533 | 49 | 0 | 0.0 | 1.7 | 0.00 | 0.00 | 0.00 | 65 | 1016.2 |
| 20260502114529 | 50 | 0 | 0.0 | 1.7 | 0.00 | 0.00 | 0.00 | 62 | 1016.2 |
| 20260502113030 | 51 | 317 | 0.0 | 1.7 | 0.00 | 0.00 | 0.00 | 61 | 1016.2 |
| 20260502111529 | 51 | 0 | 0.0 | 1.7 | 0.00 | 0.00 | 0.00 | 60 | 1016.2 |
| 20260502110032 | 51 | 355 | 0.9 | 1.7 | 0.00 | 0.00 | 0.00 | 61 | 1016.1 |
| 20260502104535 | 52 | 0 | 0.0 | 1.7 | 0.00 | 0.00 | 0.00 | 60 | 1016.2 |
| 20260502103030 | 52 | 10 | 0.9 | 2.6 | 0.00 | 0.00 | 0.00 | 59 | 1016.1 |
| 20260502101530 | 52 | 9 | 0.9 | 2.6 | 0.00 | 0.00 | 0.00 | 57 | 1016.2 |
| 20260502091531 | 54 | 0 | 0.0 | 2.6 | 0.00 | 0.00 | 0.00 | 54 | 1016.0 |
| 20260502071530 | 56 | 0 | 0.0 | 2.6 | 0.00 | 0.00 | 0.00 | 51 | 1016.1 |
| 20260502070050 | 57 | 286 | 0.9 | 2.6 | 0.00 | 0.00 | 0.00 | 50 | 1016.1 |
| 20260502064531 | 57 | 0 | 0.0 | 3.5 | 0.00 | 0.00 | 0.00 | 51 | 1016.0 |
| 20260502063032 | 56 | 0 | 1.7 | 4.3 | 0.00 | 0.00 | 0.00 | 51 | 1015.9 |
| 20260502061530 | 56 | 176 | 0.0 | 2.6 | 0.00 | 0.00 | 0.00 | 50 | 1015.8 |
| 20260502060037 | 57 | 0 | 0.0 | 1.7 | 0.00 | 0.00 | 0.00 | 51 | 1016.0 |
| 20260502054540 | 57 | 0 | 0.0 | 1.7 | 0.00 | 0.00 | 0.00 | 49 | 1016.0 |
| 20260502053035 | 58 | 261 | 0.0 | 1.7 | 0.00 | 0.00 | 0.00 | 47 | 1016.1 |
| 20260502051528 | 59 | 0 | 0.0 | 1.7 | 0.00 | 0.00 | 0.00 | 46 | 1016.0 |